Home   Weather   Esch-sur-Alzette   Past weeks

Flag for Luxembourg Past Weather in Esch-sur-Alzette, Luxembourg — Yesterday and Last 2 Weeks

Now
57 °F

Passing clouds.


Feels Like: 56 °F
Forecast: 39 / 65 °F
Wind: 6 mph from Southeast

Location: Luxembourg Airport

Current Time: Apr 29, 2017 at 5:51:42 pm

Latest Report: Apr 29, 2017 at 4:50 pm


Visibility: N/A

Pressure: 30.01 "Hg

Humidity: 36%

Dew Point: 30 °F

Location of Esch-sur-AlzetteLocation

Past Weather in Esch-sur-Alzette — Graph

°F

Esch-sur-Alzette Temperature Yesterday

Maximum temperature yesterday: 48 °F (at 2:20 pm)
Minimum temperature yesterday: 30 °F (at 5:50 am)
Average temperature yesterday: 41 °F

High & Low Weather Summary for the Past Weeks

 TemperatureHumidityPressure
High61 °F (Apr 24, 3:50 pm)100% (Apr 29, 3:20 am)30.60 "Hg (Apr 29, 3:20 am)
Low30 °F (Apr 28, 5:50 am)26% (Apr 20, 6:50 pm)29.74 "Hg (Apr 25, 5:20 am)
Average44 °F63%30.13 "Hg
* Reported Apr 14 4:20 pm — Apr 29 4:20 pm, Esch-sur-Alzette, Weather by CustomWeather, © 2017

Note: Actual official high and low records may vary slightly from our data, if they occured in-between our weather recording intervals... More about our weather records

Advertising

Esch-sur-Alzette Weather History for the Previous 24 Hours

Scroll right to see more
 ConditionsComfort  
Time TempWeatherWind HumidityBarometerVisibility
4:20 pm
Sat, Apr 29
55 °FSunny.3 mph36%30.01 "Hg10 mi
3:50 pm55 °FPassing clouds.6 mph36%30.01 "HgN/A
3:20 pm55 °FPassing clouds.7 mph38%30.01 "HgN/A
2:20 pm54 °FPassing clouds.7 mph38%30.04 "HgN/A
1:50 pm52 °FPassing clouds.2 mph44%30.04 "HgN/A
1:20 pm54 °FPassing clouds.5 mph44%30.04 "HgN/A
12:50 pm52 °FPassing clouds.5 mph44%30.04 "HgN/A
12:20 pm52 °FPassing clouds.3 mph47%30.07 "HgN/A
11:50 am50 °FScattered clouds.3 mph47%30.07 "HgN/A
11:20 am48 °FPassing clouds.5 mph54%30.07 "HgN/A
10:50 am46 °FPassing clouds.3 mph53%30.07 "HgN/A
10:20 am46 °FScattered clouds.6 mph66%30.07 "HgN/A
9:20 am43 °FScattered clouds.5 mph76%30.07 "HgN/A
8:50 am41 °FPartly sunny.5 mph87%30.07 "Hg5 mi
8:20 am41 °FPartly sunny.5 mph87%30.07 "Hg4 mi
7:50 am39 °FPartly sunny.7 mph93%30.07 "Hg4 mi
7:20 am37 °FPartly sunny.2 mph93%30.04 "Hg4 mi
6:50 am36 °FPartly sunny.3 mph93%30.04 "Hg4 mi
6:20 am36 °FFog.3 mph93%30.04 "Hg2 mi
5:50 am36 °FPassing clouds.3 mph93%30.04 "Hg4 mi
5:20 am37 °FFog.1 mph93%30.04 "Hg3 mi
4:50 am37 °FPartly cloudy.6 mph93%30.04 "HgN/A
4:20 am34 °FFog.6 mph100%30.04 "Hg3 mi
3:50 am37 °FClear.1 mph100%30.04 "HgN/A
3:20 am37 °FClear.5 mph100%30.04 "Hg10 mi
2:50 am39 °FChilly.7 mph93%30.04 "Hg6 mi
2:20 am39 °FChilly.6 mph93%30.04 "Hg6 mi
1:50 am39 °FPassing clouds.7 mph93%30.04 "HgN/A
1:20 am41 °FPassing clouds.6 mph87%30.04 "HgN/A
12:50 am41 °FPassing clouds.7 mph87%30.04 "HgN/A
12:20 am39 °FClear.6 mph93%30.04 "Hg10 mi
11:50 pm
Fri, Apr 28
41 °FPassing clouds.7 mph87%30.04 "HgN/A
11:20 pm41 °FClear.5 mph87%30.01 "Hg10 mi
10:50 pm43 °FClear.No wind87%30.01 "Hg10 mi
10:20 pm43 °FPassing clouds.3 mph87%30.01 "HgN/A
9:50 pm43 °FClear.1 mph87%30.01 "Hg10 mi
9:20 pm43 °FClear.7 mph87%30.01 "Hg10 mi
8:50 pm45 °FClear.10 mph81%30.01 "Hg10 mi
8:20 pm45 °FSunny.10 mph81%30.01 "Hg10 mi
7:50 pm45 °FSunny.12 mph81%29.98 "Hg10 mi
7:20 pm45 °FSunny.15 mph81%29.98 "Hg10 mi
6:50 pm46 °FPartly sunny.10 mph76%29.98 "HgN/A
6:20 pm45 °FPartly sunny.10 mph81%29.98 "HgN/A
5:50 pm43 °FSprinkles. Broken clouds.7 mph87%29.98 "HgN/A
5:20 pm46 °FSprinkles. Broken clouds.17 mph71%29.98 "HgN/A
Weather by CustomWeather, © 2017

See weather overviewHow to use our weather pages